Location: Atlantic Beach
(40.5890°N, 73.7290°W)
Time: 04:23:50
(UTC+00:00)

Hubble Space Telescope - Pass Details

Date: 25 January 2021
Orbit: 535 x 539 km, 28.5° (Epoch: 03 March)

Event Time Altitude Azimuth Distance (km) Brightness Sun altitude
Rises 23:31:22 0° 246° (WSW) 2,673 5.9 -16.5°
Reaches altitude 10° 23:35:37 10° 204° (SSW) 1,781 3.9 -17.3°
Maximum altitude 23:36:19 10° 194° (SSW) 1,759 3.7 -17.4°
Drops below altitude 10° 23:37:00 10° 185° (S) 1,781 3.6 -17.5°
Enters shadow 23:39:48 - 153° (SSE) 2,262 3.8 -18.1°
